TISAT 1

Satellite information

Favourite Embed

Satellite Type and Status

PAYLOADIN ORBIT

Key statistics

Satellite TISAT 1 at a glance.

Uptime

5585

Days in orbit

Revolutions

≈ 15.2

Per day

Orbit

SSO

Sun Synchronous Orbit

Inclination

98.1

Latest

Satellite identification and parameters

Extended collection of information and parameters for TISAT 1.

Object identification

Identified? True

Debris? False

Object name: TISAT 1

International designator: 2010-035E

Object number (NORAD): 36799

Object ID (CCSDS): 36799

Country: SWITZERLAND (SWTZ)

Current information (Y/N): Y

RCS size: SMALL

Orbital parameters

Period: 94.675 minutes

Inclination: 98.055 deg

SMA: 6880.995 km

Apoapsis: 505.468 km

Periapsis: 500.252 km

RAAN: 221.6954 deg

Eccentricy: 0.00037901

Argument of periapsis: 33.5365 deg

Mean anomaly: 326.6108 deg

Mean motion: 15.2098832 rev/day

Mean motion (dot): 0.0002465 rev/day2

B* drag term: 0.0011124116 1/REarth

Two-line elements (TLE)

Creation date: Oct. 26, 2025, 2:54 a.m.

Reference frame: TEME

Reference center: EARTH

Epoch: Oct. 25, 2025, 5:23 p.m. UTC

TLE line 0: 0 TISAT 1

TLE line 1: 1 36799U 10035E 25298.72449985 .00024650 00000-0 11124-2 0 9995

TLE line 2: 2 36799 98.0550 221.6954 0003790 33.5365 326.6108 15.20988320831934

Live tracking on map

Real-time ground track for satellite TISAT 1.

In-orbit conjunctions

There are no conjunctions computed for TISAT 1, at the moment. Check back to stay up to date, as we update our databases every day.

Go to all conjunctions

Associated space launch

Cartosat-2B is fourth of Cartosat series of Earth observation satellites to be deployed in sun-synchronous orbit. Its main purpose is to collect high resolution imagery for cartography purposes. Cartosat-2B was launched along with several small satellites for Algeria, Canada and Switzerland.

TISAT 1 was lifted into orbit during the mission ‘PSLV-CA | Cartosat-2B, AlSat-2A, StudSat, AISSat-1, TIsat-1’, on board a PSLV space rocket.

The launch took place on July 12, 2010, 3:52 a.m. from Satish Dhawan Space Centre First Launch Pad.

For more information about the launch, click the button.

Launch to space PSLV-CA | Cartosat-2B, AlSat-2A, StudSat, AISSat-1, TIsat-1
PSLV-CA | Cartosat-2B, AlSat-2A, StudSat, AISSat-1, TIsat-1

Agency: N/A

Status: Launch Successful

Launch date: July 12, 2010, 3:52 a.m. UTC

Rocket: PSLV

Launch pad: Satish Dhawan Space Centre First Launch Pad

Location: Satish Dhawan Space Centre, India

...

Latest news about this satellite

There are no fresh news available about this satellite. Check back as we update our databases every day.


Newsletter sign-up

Weekly statistics, charts and insights to help you stay on top of the space industry.